User: anonymous   Login
Location: Unspecified
(0.0000°N, 0.0000°E)
Time: 03:46:28
(UTC+00:00)
Language:

ARGOS - Orbit

View from above orbital plane
View from above orbital plane
View from above satellite
View from above satellite

Ground track
Ground track

The orbit data is extracted from the following two-line orbital elements,

1 25634U 99008A   18112.60368703 -.00000030 +00000-0 +58045-5 0  9993
2 25634 098.5730 171.3561 0010854 040.4307 319.7675 14.19331237991881
Epoch (UTC): 22 April 2018 14:29:18
Eccentricity: 0.0010854
inclination: 98.5730°
perigee height: 820 km
apogee height: 835 km
right ascension of ascending node: 171.3561°
argument of perigee: 40.4307°
revolutions per day: 14.19331237
mean anomaly at epoch: 319.7675°
orbit number at epoch: 99188

The dashed part of the orbit path shows where the satellite is in the earth's shadow,  

DLR